Regional Weather Roundup
Issued by NWS

Home | Current Version | Previous Version | Graphics & Text | Print | Product List | Glossary On
Versions: 1 2 3 4 5 6 7 8 9 10 11 12 13 14 15 16 17 18 19 20 21 22 23 24 25 26 27 28 29 30 31 32 33 34 35 36 37 38 39 40 41 42 43 44 45 46 47 48 49 50
000
ASUS44 KMEG 192310
RWRTN
TENNESSEE HOURLY STATE WEATHER ROUNDUP
NATIONAL WEATHER SERVICE MEMPHIS TN
600 PM CDT SAT APR 19 2014

TNZ002-004-019-021-049-052-054-088>092-200000-
WEST TENNESSEE

CITY           SKY/WX    TMP DP  RH WIND       PRES   REMARKS
MEMPHIS INTL   MOSUNNY   78  42  27 N5        30.12S
NWS MEMPHIS      N/A     76 N/A N/A MISG        N/A
JACKSON        SUNNY     77  40  26 N9        30.13R
DYERSBURG      SUNNY     75  39  27 NE7       30.15S
UNION CITY     SUNNY     73  39  29 NE10      30.14R
PARIS          SUNNY     73  40  30 E5        30.15
LEXINGTON      SUNNY     75  36  23 N7        30.12S
SILERTON         N/A     78  38  23 NE3         N/A
SAVANNAH       SUNNY     78  38  23 CALM      30.12R
$$

TNZ008-025-027-028-033-062-065-066-200000-
NORTH MIDDLE TENNESSEE

CITY           SKY/WX    TMP DP  RH WIND       PRES   REMARKS
NASHVILLE      MOSUNNY   75  40  28 N10       30.14S
DICKSON        SUNNY     73  36  25 NE12      30.15S
PORTLAND         N/A     72  37  28 NE12      30.15S
CLARKSVILLE    SUNNY     72  43  35 NE6       30.15R
SMYRNA         SUNNY     76  39  26 NE8       30.14R
MURFREESBORO   SUNNY     75  38  26 N9        30.12S
COOKEVILLE     SUNNY     73  39  29 N6        30.13S
LIVINGSTON     PTSUNNY   70  36  28 NE9       30.15S
GALLATIN       SUNNY     74  43  32 N9        30.15S
CROSSVILLE     PTSUNNY   67  39  35 SE8       30.16R
$$

TNZ061-075-076-078-094-096-097-200000-
SOUTH MIDDLE TENNESSEE

CITY           SKY/WX    TMP DP  RH WIND       PRES   REMARKS
LEWISBURG      SUNNY     74  43  32 NE7       30.12S
FAYETTEVILLE   SUNNY     72  40  31 NE9       30.12S
TULLAHOMA      SUNNY     72  37  28 N9        30.14R
WINCHESTER     SUNNY     72  39  30 N8        30.13R
MCMINNVILLE    SUNNY     73  41  31 N8        30.13S
COLUMBIA       SUNNY     73  50  43 NE7       30.12S
SHELBYVILLE    SUNNY     73  43  33 N6        30.13F
$$

TNZ017-018-042-046-047-200000-
NORTHEAST TENNESSEE

CITY           SKY/WX    TMP DP  RH WIND       PRES   REMARKS
TRI CITIES     CLOUDY    67  33  28 E5        30.16R
ELIZABETHTON   CLOUDY    64  34  32 CALM      30.16R
$$

TNZ012-013-036-069-073-074-200000-
CENTRAL EAST TENNESSEE

CITY           SKY/WX    TMP DP  RH WIND       PRES   REMARKS
KNOXVILLE      CLOUDY    60  53  77 E3        30.14R
OAK RIDGE      CLOUDY    67  40  37 S5        30.16R
$$

TNZ083-085-099-200000-
SOUTHEAST TENNESSEE

CITY           SKY/WX    TMP DP  RH WIND       PRES   REMARKS
CHATTANOOGA    CLOUDY    67  41  38 NE8       30.15R
$$

SKY/WX REPORTED AS FAIR MEANS FEW OR NO CLOUDS BELOW
12 THOUSAND FEET.




USA.gov is the U.S. government's official web portal to all federal, state and local government web resources and services.